GFSGBSN_250_rhum_159.txt.gz
RH
76 95 100 92 81 84 73 75 97 66 56 59 47 47 45 48 45 47 48 41 41 56 91 91 70 60 77 74 92 98 82 92 71 57 49 50 56 89 71 56 39 34 32 33 40 42 47
68 79 100 100 92 34 44 41 49 45 60 50 37 39 47 46 34 42 44 42 47 54 81 92 71 73 81 73 83 96 96 100 100 87 78 56 47 41 39 38 29 31 31 43 60 64 57
53 47 63 91 77 70 34 35 32 27 42 34 28 32 34 33 32 29 35 39 44 77 85 98 77 88 86 87 100 100 96 100 100 100 88 84 59 38 49 41 35 35 36 61 68 59 58
51 40 40 50 47 50 32 32 40 29 31 33 29 31 25 24 26 30 35 28 34 61 89 83 94 81 100 80 100 100 100 99 91 89 100 72 78 59 50 44 50 42 48 56 72 70 58
32 24 30 36 38 33 33 27 27 35 35 45 28 23 28 26 23 36 40 36 27 45 73 68 88 99 100 98 94 100 100 100 100 92 98 100 83 77 65 65 70 56 51 56 86 69 62
35 26 27 32 30 44 35 34 36 47 50 48 45 35 35 52 38 39 46 44 37 28 51 83 86 95 100 100 93 100 100 100 100 96 96 90 85 100 80 79 86 87 64 62 80 85 64
33 36 33 30 40 45 31 34 47 47 52 41 80 54 51 59 76 42 56 41 40 31 42 81 60 92 93 94 100 100 99 100 100 100 100 86 95 100 86 81 94 100 100 97 100 100 96
43 67 68 54 42 53 83 71 52 59 68 66 74 75 62 50 51 53 58 52 42 51 37 44 60 46 94 64 100 100 100 100 94 100 100 99 100 100 100 100 86 84 94 100 100 100 95
89 81 92 97 92 84 62 100 100 88 100 97 83 84 81 64 65 85 74 74 82 46 59 46 76 43 50 70 66 100 86 100 100 96 93 86 90 94 97 99 100 95 89 92 87 96 91
96 100 100 100 100 100 100 100 98 100 100 100 100 100 97 100 82 88 94 100 82 70 42 64 64 56 89 50 62 72 100 100 100 100 100 90 100 92 100 100 97 85 98 92 98 86 73
99 100 98 100 100 100 100 100 100 100 100 100 100 100 100 95 98 100 100 100 92 81 51 61 82 80 50 100 100 70 58 73 98 100 100 100 100 100 94 92 98 84 83 79 73 74 65
100 100 100 100 100 100 100 100 78 96 100 100 100 100 100 100 100 100 100 100 100 100 57 58 69 54 53 83 93 100 100 99 68 75 90 86 90 94 100 100 83 58 80 66 66 63 52
100 97 95 100 100 100 100 100 100 100 100 100 100 100 99 100 100 100 100 100 87 74 88 54 78 47 36 36 99 57 69 100 99 87 83 90 80 89 83 84 80 53 62 83 77 81 75
100 100 100 100 100 100 100 100 100 100 100 100 100 100 100 100 100 100 100 100 71 66 81 69 69 55 44 53 53 67 55 59 79 83 69 72 54 84 100 98 68 66 60 68 62 79 76
100 100 100 100 100 100 100 100 100 100 100 100 100 100 100 100 100 100 97 92 98 87 71 76 97 91 78 86 80 88 99 99 100 84 72 100 84 52 68 97 100 86 56 95 91 62 57
100 100 100 100 100 100 100 100 100 100 100 100 100 100 100 100 100 100 100 100 100 100 100 90 94 81 76 100 100 96 79 67 99 83 100 100 100 99 100 100 100 100 99 95 92 86 77
100 90 100 100 100 100 100 100 100 100 100 100 100 100 100 100 100 100 100 100 100 100 100 100 100 100 100 100 100 100 100 99 98 94 100 100 75 100 100 100 100 96 76 76 100 98 100
100 99 100 100 100 100 94 100 100 98 100 100 99 100 100 100 86 100 100 100 74 100 100 100 100 100 100 100 100 97 99 99 100 94 100 100 100 100 100 100 100 92 83 77 57 100 100
100 94 98 100 97 100 99 90 87 96 98 100 100 100 100 100 100 100 100 100 100 100 96 100 98 83 99 100 73 96 100 100 90 98 99 96 76 100 92 93 98 100 100 100 100 98 98
77 100 84 85 91 93 99 100 100 92 96 93 99 100 94 100 100 100 100 100 100 100 100 100 100 100 100 99 100 100 100 100 100 100 100 100 100 100 100 100 100 100 100 100 100 100 100
22 26 33 36 34 49 46 51 68 83 78 62 89 95 85 78 100 100 100 100 100 100 100 100 100 96 100 100 100 98 100 100 100 100 100 100 100 100 100 100 100 100 100 94 97 100 100
9 10 11 12 11 12 12 14 15 20 20 20 22 25 35 39 45 42 42 52 46 71 77 89 81 99 82 80 99 100 100 100 100 100 93 100 100 100 100 100 89 99 100 84 79 79 90
5 6 7 8 8 8 9 9 10 11 12 12 13 17 16 14 15 15 17 20 26 24 21 32 32 42 44 58 72 96 100 100 98 91 100 100 100 97 98 95 79 70 88 94 87 72 80
4 4 4 4 5 5 6 7 7 8 8 9 10 11 11 11 11 12 11 12 14 14 14 15 15 15 19 20 28 42 61 76 92 100 90 82 66 84 81 88 82 96 88 81 75 82 86
4 3 3 4 4 4 4 4 5 5 5 6 7 8 9 10 11 11 12 13 12 13 13 13 14 14 17 17 18 19 22 30 36 38 46 48 70 85 89 76 78 53 69 95 81 72 72
4 4 4 4 4 3 4 4 4 4 4 4 5 6 6 6 8 10 11 12 12 13 14 15 16 15 15 15 16 16 18 20 26 27 42 53 46 34 31 32 28 69 82 84 80 44 51
3 3 3 4 4 4 4 4 4 4 4 4 5 5 5 5 8 8 10 11 12 12 13 14 16 15 15 16 16 16 17 18 18 19 22 23 22 22 25 31 57 76 65 47 33 37 42
2 2 2 3 3 3 3 4 4 5 5 4 4 4 4 6 8 8 8 10 11 12 14 16 14 14 16 16 16 16 17 17 16 18 21 23 28 31 27 23 28 34 31 30 39 47 52
2 2 2 2 2 3 3 3 3 3 4 4 5 5 4 4 7 7 8 9 11 13 14 14 14 16 18 18 15 17 17 17 17 18 19 20 20 20 21 25 27 32 49 41 50 56 52

GFSGBSN_250_rhum_162.txt.gz
RH
100 100 100 100 100 100 98 93 100 100 100 100 91 57 55 81 55 74 62 43 37 41 34 37 39 47 64 69 91 51 58 74 82 78 94 100 92 63 55 55 96 98 59 33 32 34 35
100 100 100 100 100 91 52 64 86 79 66 83 99 76 41 59 64 41 38 41 37 35 32 27 28 47 38 71 75 66 63 89 92 95 100 100 100 91 78 81 72 88 87 50 44 39 37
100 100 100 98 99 59 51 66 52 62 62 44 67 51 43 49 65 40 35 40 43 30 28 30 25 36 43 47 67 64 86 83 100 100 100 100 100 92 100 94 88 60 44 45 40 39 37
84 100 100 85 92 94 62 48 31 33 47 33 37 56 47 33 42 43 33 23 27 33 25 28 29 30 40 62 60 53 73 90 82 100 100 100 100 86 94 83 70 73 71 67 60 60 52
62 38 28 29 30 34 33 32 39 26 29 26 29 34 38 37 28 27 33 26 36 26 28 36 32 36 39 49 44 66 90 96 88 97 100 100 100 100 99 100 96 83 87 84 80 97 99
35 27 24 23 27 29 27 26 32 30 29 28 27 30 26 25 28 40 46 41 37 45 55 44 45 31 47 46 47 61 61 74 88 86 100 99 100 100 100 89 82 96 100 100 100 93 88
29 26 29 36 44 33 28 34 27 34 36 28 28 29 39 37 29 29 49 40 61 53 91 73 63 42 50 45 54 61 55 44 67 83 96 100 100 100 100 100 90 100 100 100 100 100 100
47 42 38 38 46 62 45 42 41 31 41 38 40 39 35 49 48 59 43 60 67 92 78 87 86 52 43 52 74 91 62 58 55 70 95 79 84 100 100 94 100 100 96 97 98 97 81
76 92 60 61 66 65 84 54 57 44 43 48 57 90 47 48 86 96 89 95 100 94 88 97 95 59 74 62 73 87 67 79 70 69 68 88 100 98 80 100 92 100 100 100 96 100 99
92 91 100 100 97 99 90 95 82 85 84 78 87 83 99 99 100 100 99 81 90 96 68 97 88 88 78 97 97 96 76 65 91 84 81 66 91 100 100 97 100 100 100 100 100 95 94
100 100 100 100 100 100 86 100 100 100 100 98 100 100 99 90 100 100 90 95 78 100 92 77 100 86 99 93 100 99 100 94 66 90 91 70 87 92 100 100 100 100 99 100 100 94 84
100 100 100 100 100 100 100 100 100 100 100 100 100 100 100 100 100 100 100 100 100 100 77 66 99 99 86 94 100 100 100 100 100 100 71 58 70 62 76 88 74 68 70 80 74 66 61
100 100 100 100 100 100 100 100 100 100 100 100 100 100 100 100 100 100 100 100 100 94 100 100 89 73 100 100 100 100 100 86 100 100 91 98 61 74 100 95 72 77 98 74 74 67 51
100 100 100 100 100 100 100 100 96 100 100 100 100 100 100 100 100 100 100 100 100 85 98 100 97 88 88 100 72 100 100 100 100 100 100 86 47 50 98 100 100 92 75 68 92 72 68
100 100 100 100 100 100 100 100 100 100 100 100 100 100 100 100 100 100 100 100 100 100 84 100 100 100 100 89 79 58 66 88 52 100 76 100 99 53 40 82 100 100 100 100 100 100 100
93 94 82 82 86 100 100 100 100 100 100 100 100 100 100 100 100 100 100 100 100 100 100 100 100 100 100 100 100 100 94 97 94 85 61 75 76 100 65 70 62 54 97 87 90 64 68
100 100 95 92 98 100 100 100 100 100 100 100 100 100 100 100 100 100 100 100 100 100 100 100 100 100 86 87 100 100 100 97 100 90 100 93 74 85 100 83 100 100 83 92 100 100 95
86 86 87 99 100 100 100 100 100 100 100 100 100 100 100 100 100 100 100 100 100 100 100 100 100 100 100 100 93 100 100 86 100 100 100 84 100 95 100 100 100 100 100 100 98 100 100
97 86 77 98 100 100 100 100 100 100 100 100 100 100 100 100 100 100 100 100 100 94 100 100 90 100 100 100 100 100 100 98 90 99 100 100 100 71 63 96 86 79 88 93 85 100 99
58 65 57 83 82 63 69 89 100 100 100 100 100 100 100 95 90 96 100 100 100 94 72 70 83 95 97 100 100 100 100 100 100 100 99 100 98 94 96 94 100 100 100 100 100 100 100
20 22 24 33 33 32 39 39 54 58 67 81 89 75 74 99 93 95 96 85 77 85 77 85 72 74 83 83 82 97 100 100 93 100 100 100 100 100 100 100 100 100 100 97 100 100 100
8 9 12 14 16 18 19 27 30 38 31 38 41 56 41 65 65 60 82 60 83 100 90 100 84 100 100 63 98 100 93 82 87 100 100 92 97 100 87 100 100 100 96 83 100 100 100
4 5 6 6 7 8 9 10 12 14 14 16 20 31 29 30 33 29 34 46 60 53 46 84 54 61 36 34 33 35 41 55 70 86 82 74 74 100 84 100 100 86 88 87 84 82 86
4 4 4 4 5 6 6 7 7 8 9 9 11 11 12 12 14 17 16 22 24 20 15 16 17 19 21 18 22 21 23 28 27 43 48 48 69 65 59 72 64 52 66 93 100 97 83
4 5 4 4 4 4 4 5 5 5 5 6 7 8 9 9 11 12 12 12 13 12 12 14 15 14 14 14 15 15 15 14 16 18 20 24 22 27 26 26 27 40 82 82 78 72 80
3 3 4 5 5 5 5 4 4 4 4 4 4 4 4 5 7 9 9 11 12 11 12 12 13 14 14 15 15 15 14 14 15 17 20 19 18 20 23 24 23 45 59 54 70 87 91
3 3 3 3 3 4 4 5 5 5 4 4 4 4 4 4 6 6 8 9 10 9 10 11 13 12 13 13 13 14 15 14 15 17 19 18 18 20 24 26 28 36 50 63 67 72 51
3 3 3 3 3 3 3 3 3 4 4 4 5 5 4 4 6 6 7 8 9 9 9 11 11 12 13 13 14 16 16 15 14 16 18 20 21 22 26 27 23 32 29 40 69 85 86
3 3 3 3 3 3 3 3 3 3 3 3 4 5 5 6 7 6 7 8 9 10 9 11 11 13 14 14 15 15 14 12 16 18 18 21 21 20 23 29 38 38 38 47 69 77 72

GFSGBSN_250_rhum_165.txt.gz
RH
100 100 78 52 40 59 56 97 100 100 100 100 100 100 81 97 92 86 66 93 69 41 60 45 46 48 35 30 27 26 30 43 39 62 62 57 81 79 97 100 90 60 65 71 99 94 99
83 68 45 33 37 75 99 93 100 94 100 100 100 92 72 80 82 72 62 61 65 43 54 64 57 36 29 29 29 30 29 33 39 41 63 74 71 98 100 98 99 87 76 83 98 91 62
51 41 38 36 38 46 82 79 100 100 100 100 100 100 100 67 61 44 49 37 50 47 41 43 39 22 23 30 31 38 43 34 35 37 45 70 99 97 100 100 100 100 97 97 96 92 80
40 28 32 35 32 36 63 61 88 97 98 99 88 57 48 40 39 46 33 36 40 42 35 37 34 32 32 31 41 62 64 52 37 41 44 67 89 92 89 100 99 81 92 84 97 99 87
37 30 31 30 31 30 33 51 44 56 57 41 27 31 30 27 33 32 27 28 32 33 30 33 26 25 46 52 50 43 82 90 61 50 47 48 59 100 100 100 100 91 89 100 100 92 82
36 35 34 37 31 30 31 31 28 40 40 31 31 30 29 25 27 31 32 29 28 27 30 40 33 29 53 28 85 87 93 67 98 40 46 67 54 52 67 100 92 96 100 100 100 81 72
50 60 44 42 47 36 44 34 34 27 29 28 29 33 35 39 28 32 27 35 30 30 32 36 55 45 47 44 50 68 80 89 57 63 49 76 81 77 54 61 100 100 100 100 100 100 100
64 60 60 54 62 52 58 52 47 38 39 32 38 41 41 46 46 41 42 35 42 42 38 37 38 44 73 82 100 100 100 84 71 87 73 64 50 99 91 67 59 81 99 100 100 100 98
87 76 74 81 76 78 69 75 67 57 55 55 57 56 60 71 71 68 59 62 46 53 53 65 72 69 69 90 77 96 88 81 93 95 96 58 65 76 98 95 87 71 91 100 98 100 100
100 100 99 98 95 93 95 93 90 89 77 77 85 86 86 94 96 91 81 91 88 80 89 77 91 100 98 99 98 100 95 100 96 80 100 52 98 77 48 85 100 94 94 74 84 100 100
100 100 100 100 100 100 100 99 100 100 92 97 100 89 97 100 100 100 100 100 100 100 100 100 100 99 100 100 100 95 100 100 77 79 100 91 94 100 89 62 91 92 92 82 94 92 76
100 100 100 100 100 100 100 100 100 100 100 100 100 100 100 100 100 100 100 100 87 100 84 72 94 98 90 83 93 100 100 100 100 100 100 84 88 100 100 100 90 100 100 100 73 70 70
100 100 100 100 100 100 100 100 100 100 100 100 100 100 100 100 100 100 100 100 100 96 98 92 93 92 95 96 84 100 100 100 79 99 100 64 99 100 100 100 100 100 100 100 94 77 66
100 100 100 100 100 100 100 100 100 100 100 100 100 100 100 100 100 100 100 100 95 86 100 100 100 99 100 100 99 96 100 100 72 67 100 92 100 79 100 94 56 100 77 91 100 100 100
100 100 100 100 100 100 100 100 100 100 100 100 100 100 100 100 100 100 100 100 99 100 100 100 100 100 100 100 100 100 100 100 100 98 100 78 85 100 98 51 92 87 68 70 100 100 100
91 93 100 100 100 100 92 100 100 100 100 100 100 100 100 98 100 100 100 100 100 100 100 100 100 100 100 100 99 99 100 100 96 100 100 100 100 92 100 100 100 100 100 100 52 76 67
75 72 82 95 86 78 89 98 100 98 100 100 100 100 100 100 100 100 100 100 100 100 100 100 100 100 100 100 100 100 100 100 100 100 100 100 100 93 83 81 100 100 84 98 100 94 83
60 58 61 79 85 92 100 98 93 99 100 100 100 100 100 100 100 100 100 100 100 100 100 100 100 100 100 100 100 100 100 100 100 100 100 100 87 100 100 92 100 100 100 100 100 100 100
60 69 77 76 78 79 91 98 92 99 100 100 100 100 98 100 100 100 100 100 100 100 100 100 100 100 100 100 82 78 74 79 78 88 100 100 96 66 68 88 100 100 100 100 100 100 98
52 50 45 60 53 63 94 100 97 94 98 93 82 90 80 99 89 100 94 100 100 100 100 100 100 100 100 100 100 100 100 100 100 92 100 95 100 100 100 93 100 100 100 100 100 100 100
7 8 11 22 51 55 49 54 56 63 79 76 68 72 74 89 73 96 85 71 95 98 100 100 98 100 90 88 100 99 100 90 100 100 93 89 86 95 98 80 91 81 78 77 68 71 92
5 6 6 6 8 10 11 23 48 59 56 47 61 69 66 57 62 73 70 71 79 84 99 100 100 100 90 85 100 84 82 87 87 100 100 100 100 100 88 97 100 100 78 51 64 70 83
5 5 5 5 6 6 6 7 8 9 11 15 27 40 31 39 36 38 42 49 52 58 72 76 75 83 80 92 83 84 95 99 95 82 100 100 92 62 70 96 70 57 56 52 58 68 83
5 5 4 4 5 5 5 6 6 6 7 8 9 10 13 15 18 23 27 27 26 27 27 36 36 41 46 50 40 37 41 50 57 64 64 65 65 20 24 30 24 28 40 70 94 95 81
3 4 5 5 5 5 5 5 5 5 5 5 6 7 7 8 8 9 11 11 10 10 14 15 17 18 17 19 20 21 19 21 24 17 20 21 19 19 19 18 19 20 42 63 61 71 76
3 3 3 4 4 4 5 6 6 5 5 5 5 4 4 5 7 8 8 9 10 9 10 12 12 12 12 12 14 15 16 16 15 17 17 17 17 16 18 16 15 20 35 40 40 33 46
4 3 3 3 3 3 4 3 4 4 5 5 5 5 4 4 6 6 6 6 7 8 9 11 10 9 9 11 13 13 13 14 14 14 15 15 15 15 15 15 15 20 21 24 23 24 27
4 4 4 4 4 4 3 3 4 3 3 3 4 4 5 6 6 6 6 6 6 7 8 7 8 9 10 10 12 11 11 12 11 12 11 12 15 17 17 17 18 21 24 25 32 31 33
4 4 4 4 4 4 4 4 4 4 3 3 4 3 3 4 8 7 8 8 7 6 6 6 8 8 10 10 12 10 9 11 11 11 13 16 18 20 20 20 20 22 25 32 34 27 29

GFSGBSN_250_rhum_171.txt.gz
RH
100 100 100 100 100 100 100 100 100 100 97 91 74 66 51 52 43 43 75 100 100 100 100 100 100 100 100 100 80 72 50 55 79 68 55 49 34 36 36 24 22 21 21 33 51 100 100
100 100 100 100 100 100 94 97 94 92 55 44 57 54 46 40 40 38 58 100 100 100 100 100 100 98 86 61 42 59 44 45 64 59 44 43 43 40 41 34 31 24 42 24 27 42 91
96 100 100 100 100 95 87 65 75 58 49 46 44 58 51 48 39 39 42 51 70 83 98 100 98 88 63 47 40 45 50 47 50 44 42 46 52 44 42 44 42 69 62 60 39 23 49
60 85 100 84 59 94 96 67 49 51 44 48 54 54 61 48 40 41 38 37 37 42 57 65 76 80 68 57 46 42 53 58 58 64 62 44 44 44 48 48 53 90 46 64 86 44 27
54 42 44 40 40 54 53 55 58 51 50 53 50 47 52 54 38 36 40 40 40 37 39 40 44 44 49 56 50 46 47 49 42 59 67 61 50 56 41 40 50 43 54 59 61 66 47
50 46 48 44 47 50 50 54 58 61 50 53 54 46 46 42 47 46 39 38 35 35 35 38 41 40 38 52 55 61 50 61 53 42 56 58 60 60 66 47 53 66 98 100 96 72 76
68 61 59 54 49 58 60 48 60 48 59 66 48 48 42 60 65 56 54 54 52 39 42 40 47 54 56 46 48 80 55 63 70 41 54 62 60 74 65 57 88 100 99 100 100 96 76
62 56 52 64 75 50 55 61 38 59 46 48 61 52 69 65 69 77 72 82 69 63 48 48 54 48 52 52 48 59 74 63 74 88 66 63 49 88 99 100 100 92 100 100 100 100 90
67 74 78 63 76 75 70 65 61 52 52 56 74 91 75 80 85 84 82 92 86 81 62 68 68 77 90 90 66 66 75 100 97 75 100 74 99 94 99 100 100 100 100 94 92 97 100
76 89 70 80 86 87 86 93 85 87 89 86 92 85 95 100 99 100 100 100 100 100 96 88 58 84 80 100 100 100 100 100 100 100 100 90 100 100 100 100 100 100 100 100 89 100 100
100 100 99 98 100 100 98 93 94 100 100 100 84 88 100 97 100 100 94 100 100 100 100 92 74 90 100 88 100 100 96 100 100 100 100 100 100 100 100 100 100 100 100 100 100 87 100
100 100 100 100 100 100 100 100 100 100 100 100 100 100 100 100 100 100 100 100 100 100 98 100 100 100 95 100 100 100 100 100 100 94 82 100 100 100 100 100 100 100 91 86 77 71 100
100 100 100 100 100 100 100 100 100 100 100 100 100 100 100 99 100 100 100 100 100 100 98 86 93 100 100 100 100 100 100 100 100 100 100 100 100 100 100 100 100 94 76 74 61 91 100
100 100 100 100 100 100 100 100 100 100 100 100 100 100 100 100 100 100 100 100 100 94 96 92 87 95 100 100 100 100 100 100 100 100 100 100 100 83 83 83 80 70 68 61 59 100 100
100 100 100 100 100 100 100 100 100 100 100 100 100 100 100 100 100 100 100 100 100 96 94 99 100 99 75 69 94 86 88 90 90 80 85 86 74 74 67 62 59 55 45 70 93 64 99
100 100 100 100 100 100 100 100 100 100 100 100 100 100 100 100 100 100 100 100 100 100 100 100 100 98 86 97 98 89 88 80 83 87 79 75 87 100 99 87 85 100 100 100 100 100 100
100 100 100 100 100 100 100 100 100 100 100 100 100 100 100 100 100 100 100 100 100 100 100 100 100 100 100 88 78 81 87 100 100 100 100 100 100 100 100 100 100 100 100 100 100 88 100
96 100 100 100 87 80 100 100 100 100 100 100 100 100 100 100 100 100 83 93 98 98 100 98 99 96 89 79 97 98 100 100 90 100 90 77 65 82 100 100 98 77 72 78 99 100 100
26 32 36 36 44 70 95 99 98 100 100 100 100 100 100 100 100 100 100 100 100 97 100 100 100 100 100 100 100 85 100 94 96 84 85 83 94 95 100 100 100 100 100 96 96 98 74
16 16 14 15 18 28 35 46 52 70 73 80 86 81 88 92 100 100 100 100 100 100 100 100 100 100 100 100 100 100 100 100 100 100 100 100 100 100 99 100 100 100 100 98 92 100 93
6 6 8 11 16 15 17 21 26 32 33 40 47 48 52 57 74 92 98 94 92 91 80 90 97 100 100 100 100 100 100 100 100 100 100 100 100 99 100 100 100 100 100 100 100 100 100
3 3 3 3 3 4 5 6 5 9 12 15 18 20 27 30 40 45 49 64 71 78 75 60 54 70 87 82 85 100 90 100 100 100 100 100 100 100 100 100 100 100 100 100 100 100 100
3 3 3 3 3 3 3 3 4 5 5 5 6 6 8 10 12 16 18 25 32 46 53 63 69 58 53 57 65 69 81 84 90 94 98 100 100 97 95 97 100 83 85 100 99 91 96
3 3 3 3 3 3 4 4 4 4 4 5 6 5 5 5 6 7 9 10 11 16 16 23 29 31 30 27 29 29 38 48 59 83 90 95 96 88 67 67 53 60 65 71 76 74 68
4 4 4 3 3 3 3 4 4 4 5 5 6 6 6 6 7 7 7 7 7 8 9 10 10 9 11 12 14 13 16 16 23 27 29 36 48 49 41 36 40 32 56 52 32 33 37
4 4 4 4 4 4 4 4 4 4 4 5 6 7 7 7 8 8 8 8 8 9 9 8 9 10 11 11 10 10 12 13 14 13 15 18 18 19 19 18 17 18 18 17 24 16 16
4 4 4 4 5 5 5 5 5 4 4 4 4 4 6 7 8 9 8 8 8 8 8 8 9 9 9 9 9 9 9 11 11 13 14 14 13 13 13 13 14 15 14 12 15 12 13
3 3 3 4 4 4 4 5 5 5 6 6 4 4 4 5 5 6 7 8 8 8 8 8 8 8 9 8 8 8 8 10 9 12 12 12 14 15 14 13 15 16 13 12 12 11 13
3 3 3 3 3 4 4 4 5 5 7 7 7 7 6 5 5 5 5 6 6 5 7 8 9 9 9 8 8 8 8 8 10 12 14 11 9 11 14 16 13 10 11 13 14 14 15

GFSGBSN_250_rhum_174.txt.gz
RH
63 70 73 79 84 99 100 100 98 100 100 100 100 100 100 100 100 84 70 78 62 49 44 66 100 100 100 100 100 99 100 98 79 60 52 47 46 69 71 54 48 48 43 39 28 26 28
98 100 100 100 100 96 100 100 100 98 100 100 100 100 98 96 86 62 57 56 65 60 41 47 50 75 92 88 78 92 100 97 76 50 58 53 50 56 57 55 45 48 46 43 41 22 32
100 100 100 100 100 100 100 92 100 100 100 100 100 100 100 93 74 64 56 58 62 73 58 41 53 53 50 53 60 67 71 81 91 84 58 53 66 64 72 71 64 55 57 48 40 50 40
100 100 100 100 100 93 88 78 73 66 91 100 71 61 82 86 77 74 64 64 62 66 73 43 37 43 41 47 52 53 51 58 58 68 73 55 60 63 60 52 61 57 64 68 59 48 48
100 95 100 100 93 57 59 59 60 60 56 53 50 56 65 69 79 83 74 63 63 60 59 54 40 37 38 41 45 46 50 64 59 66 64 72 82 62 56 49 36 41 60 61 70 75 97
67 96 88 69 55 65 51 55 58 57 62 64 57 58 61 61 58 72 69 61 52 54 48 56 56 46 45 48 38 37 52 50 49 58 67 72 72 81 76 73 65 60 38 45 68 100 100
44 46 47 49 42 46 62 64 64 61 68 70 62 60 56 60 52 49 53 60 58 49 49 59 78 82 74 62 53 54 49 48 56 63 69 66 59 71 100 96 66 66 74 81 97 100 100
46 47 46 50 57 70 77 71 65 53 66 61 46 49 69 47 61 49 41 46 42 55 62 65 73 86 90 90 50 78 84 73 67 76 85 94 63 90 100 99 100 89 85 100 100 100 100
63 64 62 59 64 62 58 51 50 47 53 56 67 47 66 67 52 72 64 43 56 65 48 59 69 66 95 98 85 85 96 79 88 70 87 94 100 100 100 100 100 97 95 91 100 100 88
82 87 52 51 50 45 43 51 67 66 65 70 64 52 65 70 78 68 76 70 85 64 68 59 59 74 85 86 95 100 100 98 73 77 94 70 100 100 100 82 100 100 100 100 100 100 90
100 100 100 95 99 100 98 92 92 82 98 77 78 64 79 85 82 89 75 84 70 100 100 63 57 85 100 100 100 100 100 100 100 100 100 90 75 96 100 100 100 100 100 100 100 100 100
100 100 100 100 100 100 100 100 100 100 100 98 96 98 74 79 100 100 100 100 100 100 97 96 97 100 100 100 100 100 100 100 100 100 100 100 100 100 100 100 100 100 100 100 100 100 100
100 100 100 100 100 100 100 100 100 100 100 100 100 99 100 92 64 96 100 100 100 100 100 100 98 100 100 100 95 100 100 100 100 100 100 100 100 100 100 100 100 100 100 100 100 100 100
100 100 100 100 100 100 100 100 100 100 100 100 100 100 96 100 100 94 100 100 100 98 97 100 89 67 77 92 88 95 92 82 90 100 100 100 95 100 100 100 100 98 100 99 93 89 81
100 100 100 100 100 100 100 100 100 100 100 100 100 100 100 100 99 89 100 100 87 98 100 100 100 100 89 89 90 100 100 100 100 87 95 100 86 95 85 76 76 91 79 79 84 66 71
94 100 100 100 100 100 100 100 100 100 100 100 100 100 100 100 100 100 100 100 100 100 100 100 100 100 100 100 100 100 100 96 97 97 91 91 98 100 97 96 94 96 97 100 100 100 100
97 100 93 81 95 94 100 100 100 100 100 100 100 100 100 100 100 100 100 100 100 100 100 100 100 100 100 100 100 100 100 100 100 96 100 88 66 61 69 64 66 74 92 100 100 99 100
70 65 74 76 73 74 97 95 100 100 100 100 100 100 100 100 100 100 96 98 98 100 100 100 100 100 100 100 100 100 100 100 100 75 85 78 69 67 60 60 58 60 66 72 71 71 88
27 26 32 37 47 62 72 78 100 100 100 100 100 100 100 100 100 100 100 100 100 100 100 100 100 100 100 100 100 100 100 100 100 100 100 100 88 86 100 92 96 74 61 73 79 88 89
11 13 14 17 21 23 25 42 60 84 100 100 100 100 100 100 100 100 100 100 100 100 100 100 100 100 100 100 100 100 100 100 100 100 100 100 100 100 100 100 100 100 100 100 97 91 92
5 7 9 11 16 17 17 16 20 29 40 41 78 90 100 100 100 100 100 100 100 100 98 100 100 98 100 100 100 100 100 100 100 100 100 100 82 98 97 94 100 100 100 100 100 100 100
3 3 3 3 4 4 4 6 10 15 16 17 36 32 32 42 44 81 78 72 76 80 85 86 83 98 94 84 78 76 87 87 92 100 100 100 100 100 100 100 100 100 100 100 100 100 100
3 3 3 3 3 4 4 4 4 4 4 4 7 8 14 18 25 28 36 41 46 51 48 59 62 67 65 58 52 49 57 58 67 79 81 94 98 97 92 100 94 92 88 95 96 100 100
4 4 4 4 4 4 4 4 4 4 4 4 4 5 5 6 5 7 10 14 16 20 29 30 34 38 41 40 44 40 26 24 32 39 61 81 89 77 66 68 58 67 83 86 91 85 77
7 6 5 5 5 4 4 4 4 4 4 4 4 4 4 4 5 5 5 5 6 6 7 9 10 10 12 15 12 13 10 9 12 14 20 26 31 40 41 33 27 25 45 63 35 36 64
5 6 6 5 5 5 5 5 5 4 4 4 4 4 4 4 5 5 6 5 5 5 6 5 7 7 8 8 10 10 9 9 10 10 10 12 16 17 15 15 14 15 16 17 19 19 19
4 5 5 5 5 5 5 5 5 5 6 6 5 5 4 4 4 5 6 7 7 8 8 7 7 6 7 7 7 9 10 10 9 10 12 15 15 15 14 15 15 16 16 16 14 14 14
4 4 4 4 4 4 5 5 6 6 6 6 6 7 6 6 5 5 5 5 6 7 8 9 8 9 8 8 9 10 8 9 9 10 11 14 17 17 17 14 13 13 14 13 13 11 11
4 4 4 4 4 4 4 5 5 6 6 6 6 6 6 6 7 8 7 6 5 5 6 6 8 8 7 10 11 10 8 10 9 10 10 13 14 16 18 18 15 14 13 12 11 12 12